Torna al catalogo

STARLINK-3934

AttivoComunicazioniVLEO
NORAD 52675·PAYLOAD·🇺🇸 United States

Lanciato May 18, 2022 da Cape Canaveral Space Force Station

Loading…

Prossimi Passaggi (prossime 24 ore)

TLE

AggiornatoSource: CelesTrak SupGP

Epoca: Sep 14, 2026, 14:03 UTC

1 52675C 22053V   26257.58590278 -.00016399  00000+0 -52733-3 0  2572
2 52675  53.1600   7.4595 0000943  85.1295 288.4474 15.31712520    13

Traccia STARLINK-3934 in tempo reale con AllMySat

Download on the App Store